DateTimeUTC,F1_A11,F1_S11,BsB_S11,BsG_S11,BsR_S11,BbsB_S11,BbsG_S11,BbsR_S11,BaB_A11,BaG_A11,BaR_A11,Tu_S11,T_S11,Uu_S11,U_S11,P_S11,T1_A11
2021-04-30T18:00:00Z,00000200,21000000,,,,,,,-000.28,0000.10,0000.07,18.8,25.9,,00.0,0681.6,31.2
2021-04-30T18:01:00Z,00000200,21000000,,,,,,,-000.20,-000.21,-000.09,18.8,25.9,,00.0,0681.6,31.2
2021-04-30T18:02:00Z,00000200,21000000,,,,,,,-000.35,-000.42,-000.44,18.8,25.9,,00.0,0681.6,31.2
2021-04-30T18:03:00Z,00000200,61000000,,,,,,,0000.04,-000.05,-000.05,18.8,25.9,,00.0,0681.6,31.2
2021-04-30T18:04:00Z,00000200,41000000,0000.28,0000.51,0000.57,-000.02,0000.19,0000.21,-000.02,0000.01,0000.31,18.8,25.7,,00.0,0682.5,31.2
2021-04-30T18:05:00Z,00000200,01000000,0000.72,0000.26,0000.33,0000.36,0000.13,0000.54,0000.20,0000.17,0000.22,18.9,25.7,,00.0,0682.6,31.1
2021-04-30T18:06:00Z,00000200,01000000,0000.04,0000.37,0000.36,0000.42,-000.10,0000.13,-000.20,-000.13,-000.31,18.9,25.7,,00.0,0682.7,31.2
2021-04-30T18:07:00Z,00000200,01000000,0000.73,0000.20,0000.00,-000.02,0000.17,0000.14,0000.35,0000.34,-000.03,18.9,25.7,,00.0,0682.6,31.1
2021-04-30T18:08:00Z,00000200,01000000,0000.41,0000.36,0000.30,-000.23,0000.04,0000.28,0000.08,0000.08,0000.40,18.9,25.7,,00.0,0682.7,31.2
2021-04-30T18:09:00Z,00000200,01000000,0000.68,0000.42,0000.45,0000.16,0000.10,0000.14,-000.20,0000.04,0000.14,18.9,25.7,,00.0,0682.7,31.2
2021-04-30T18:10:00Z,00000200,01000000,0001.13,0000.44,0000.44,0000.43,0000.24,-000.09,0000.28,0000.10,-000.03,18.9,25.6,,00.0,0682.6,31.2
2021-04-30T18:11:00Z,00000200,01000000,0001.44,0001.00,0000.60,-000.30,0000.29,0000.07,-000.43,-000.33,-000.17,18.9,25.6,,00.0,0682.6,31.2
2021-04-30T18:12:00Z,00000200,01000000,0001.35,0001.15,0000.79,-000.05,0000.15,0000.08,0000.15,0000.00,0000.24,18.9,25.6,,00.0,0682.6,31.2
2021-04-30T18:13:00Z,00000200,01000000,0003.29,0001.44,0001.04,0000.68,0000.50,0000.44,0000.38,0000.58,0000.16,18.9,25.6,,00.0,0682.6,31.1
2021-04-30T18:14:00Z,00000200,01000000,0003.53,0001.94,0001.65,0000.63,0000.30,0000.19,0001.01,0000.56,0000.80,18.9,25.6,,00.0,0682.7,31.2
2021-04-30T18:15:00Z,00000200,01000000,0002.98,0001.87,0001.49,0000.03,0000.54,0000.45,0001.17,0001.18,0000.29,18.9,25.6,,00.0,0682.7,31.2
2021-04-30T18:16:00Z,00000200,01000000,0002.95,0001.93,0001.65,0000.89,0000.48,0000.40,0001.11,0001.05,0001.23,18.9,25.6,,00.0,0682.7,31.1
2021-04-30T18:17:00Z,00000200,01000000,0002.70,0001.68,0001.30,0000.68,0000.37,0000.36,0001.64,0000.98,0000.43,18.9,25.6,,00.0,0682.7,31.2
2021-04-30T18:18:00Z,00000200,01000000,0002.92,0001.71,0001.26,0000.38,0000.27,0000.18,0000.67,0001.23,0001.05,18.9,25.6,,00.0,0682.7,31.1
2021-04-30T18:19:00Z,00000200,01000000,0003.25,0002.35,0001.23,0000.76,0000.50,0000.49,0001.82,0001.22,0000.94,18.9,25.6,,00.0,0682.7,31.2
2021-04-30T18:20:00Z,00000200,01000000,0002.99,0002.15,0001.29,0000.78,0000.22,0000.29,0000.82,0000.94,0000.55,18.9,25.6,,00.0,0682.7,31.1
2021-04-30T18:21:00Z,00000200,01000000,0002.49,0001.46,0001.15,0000.15,0000.51,0000.25,0001.13,0000.95,0000.86,18.9,25.6,,00.0,0682.7,31.1
2021-04-30T18:22:00Z,00000200,01000000,0002.80,0001.38,0001.03,0000.63,0000.06,0000.34,0001.14,0001.26,0001.04,18.9,25.6,,00.0,0682.7,31.1
2021-04-30T18:23:00Z,00000200,01000000,0001.04,0000.60,0000.58,-000.15,0000.09,-000.01,0000.74,0000.67,0000.04,18.9,25.6,,00.0,0682.7,31.2
2021-04-30T18:24:00Z,00000200,01000000,0001.58,0000.55,0000.71,0000.17,0000.45,0000.35,0000.33,0000.29,0000.12,18.9,25.6,,00.0,0682.7,31.2
2021-04-30T18:25:00Z,00000200,01000000,0001.20,0000.97,0000.79,0000.55,0000.27,0000.15,0000.41,0000.21,0000.14,18.9,25.6,,00.0,0682.7,31.2
2021-04-30T18:26:00Z,00000200,01000000,0001.92,0000.69,0001.03,0000.04,0000.24,0000.55,0000.12,0000.02,0000.43,18.9,25.6,,00.0,0682.7,31.2
2021-04-30T18:27:00Z,00000200,01000000,0001.58,0000.87,0000.70,0000.77,0000.31,0000.21,0000.47,0000.38,0000.38,18.9,25.6,,00.0,0682.7,31.2
2021-04-30T18:28:00Z,00000200,01000000,0001.77,0001.27,0001.15,0000.07,0000.54,0000.25,0000.77,0000.36,0000.22,18.9,25.6,,00.0,0682.7,31.2
2021-04-30T18:29:00Z,00000200,01000000,0002.10,0001.59,0001.34,-000.15,0000.15,0000.50,0000.51,0000.61,0000.41,18.9,25.6,,00.0,0682.7,31.1
2021-04-30T18:30:00Z,00000200,01000000,0003.35,0002.40,0001.78,0001.01,0000.44,0000.68,0001.31,0001.30,0000.72,18.9,25.6,,00.0,0682.7,31.2
2021-04-30T18:31:00Z,00000200,01000000,0003.34,0002.57,0001.66,0000.76,0000.24,0000.46,0001.25,0001.07,0000.85,18.9,25.6,,00.0,0682.7,31.2
2021-04-30T18:32:00Z,00000200,01000000,0003.74,0002.67,0001.62,0000.74,0000.45,0000.52,0001.28,0001.36,0001.16,18.9,25.6,,00.0,0682.7,31.2
2021-04-30T18:33:00Z,00000200,01000000,0003.80,0002.38,0001.83,0000.51,0000.60,0000.45,0001.85,0001.45,0000.91,18.9,25.6,,00.0,0682.7,31.2
2021-04-30T18:34:00Z,00000200,01000000,0004.38,0003.03,0001.76,0000.40,0000.58,0000.67,0001.79,0001.23,0001.44,18.9,25.6,,00.0,0682.6,31.2
2021-04-30T18:35:00Z,00000200,01000000,0004.25,0002.88,0001.99,0000.48,0000.64,0000.45,0001.56,0001.26,0000.89,18.9,25.6,,00.0,0682.7,31.2
2021-04-30T18:36:00Z,00000200,01000000,0004.32,0002.85,0001.78,0000.53,0000.65,0000.14,0001.66,0002.07,0001.18,18.9,25.6,,00.0,0682.7,31.2
2021-04-30T18:37:00Z,00000200,01000000,0004.73,0002.60,0001.81,0000.85,0000.21,0000.23,0002.01,0001.32,0001.16,18.9,25.6,,00.0,0682.7,31.2
2021-04-30T18:38:00Z,00000200,01000000,0003.47,0002.43,0001.67,0000.76,0000.80,0000.52,0001.80,0001.94,0001.30,18.9,25.6,,00.0,0682.6,31.2
2021-04-30T18:39:00Z,00000200,01000000,0003.24,0002.35,0001.62,0000.70,0000.37,0000.59,0001.21,0001.02,0000.59,18.9,25.6,,00.0,0682.6,31.2
2021-04-30T18:40:00Z,00000200,01000000,0002.58,0001.92,0001.53,0000.41,0000.11,0000.20,0001.18,0000.85,0000.87,18.9,25.6,,00.0,0682.7,31.1
2021-04-30T18:41:00Z,00000200,01000000,0001.95,0000.78,0001.17,-000.12,0000.53,0000.41,0001.04,0001.16,0000.43,18.9,25.6,,00.0,0682.7,31.2
2021-04-30T18:42:00Z,00000200,01000000,0002.05,0000.89,0000.87,0000.14,0000.11,0000.00,0001.09,0000.46,0000.95,18.9,25.6,,00.0,0682.7,31.2
2021-04-30T18:43:00Z,00000200,01000000,0001.25,0000.96,0000.56,0000.11,0000.28,0000.01,0000.62,0000.86,0000.30,18.9,25.6,,00.0,0682.7,31.1
2021-04-30T18:44:00Z,00000200,01000000,0001.15,0000.67,0000.64,-000.44,0000.02,0000.18,0000.83,0000.93,0000.48,18.9,25.6,,00.0,0682.7,31.2
2021-04-30T18:45:00Z,00000200,01000000,0000.99,0000.71,0000.50,0000.61,0000.24,-000.20,0000.65,0000.70,0000.45,18.9,25.6,,00.0,0682.7,31.2
2021-04-30T18:46:00Z,00000200,01000000,0000.19,0000.32,0000.61,0000.26,0000.21,-000.04,0000.65,0000.30,0000.23,19.0,25.6,,00.0,0682.7,31.2
2021-04-30T18:47:00Z,00000200,01000000,0000.98,0000.41,0000.30,0000.04,0000.21,0000.31,0000.19,0000.78,0000.53,18.9,25.6,,00.0,0682.7,31.2
2021-04-30T18:48:00Z,00000200,01000000,0000.38,0000.42,0000.19,0000.16,0000.25,0000.26,0000.14,-000.15,-000.35,18.9,25.6,,00.0,0682.8,31.2
2021-04-30T18:49:00Z,00000200,01000000,0000.86,0000.24,0000.23,0000.16,0000.06,0000.11,0000.54,0000.41,0000.72,18.9,25.6,,00.0,0682.8,31.1
2021-04-30T18:50:00Z,00000200,01000000,0000.99,0000.46,0000.57,0000.55,0000.22,0000.56,0000.15,0000.15,-000.15,18.9,25.6,,00.0,0682.8,31.1
2021-04-30T18:51:00Z,00000200,01000000,0000.60,0000.49,0000.54,0000.44,0000.11,0000.08,0000.43,0000.30,0000.16,18.9,25.6,,00.0,0682.8,31.1
2021-04-30T18:52:00Z,00000200,01000000,0001.01,0000.61,0000.46,0000.08,0000.25,-000.14,0000.25,0000.28,0000.66,18.9,25.6,,00.0,0682.8,31.2
2021-04-30T18:53:00Z,00000200,01000000,0000.89,0000.40,0000.34,0000.21,0000.07,-000.05,0000.26,0000.13,-000.24,18.9,25.6,,00.0,0682.8,31.2
2021-04-30T18:54:00Z,00000200,01000000,0000.74,0000.44,0000.45,0000.01,0000.03,0000.29,0000.21,0000.42,0000.49,18.9,25.6,,00.0,0682.8,31.2
2021-04-30T18:55:00Z,00000200,01000000,0000.21,0000.43,0000.28,0000.14,-000.01,0000.01,0000.55,0000.30,0000.10,18.9,25.6,,00.0,0682.8,31.1
2021-04-30T18:56:00Z,00000200,01000000,0001.13,0000.54,0000.48,0000.02,0000.08,0000.58,0000.41,0000.55,0000.33,18.9,25.6,,00.0,0682.8,31.1
2021-04-30T18:57:00Z,00000200,41000000,,,,,,,-000.14,-000.31,-000.24,18.9,25.6,,00.0,0682.8,31.2
2021-04-30T18:58:00Z,00000200,61000000,,,,,,,-000.12,0000.21,0000.31,18.7,25.7,,00.0,0681.8,31.2
2021-04-30T18:59:00Z,00000200,21000000,,,,,,,0000.05,-000.12,-000.43,18.7,25.8,,00.0,0681.7,31.1
